Regional Weather Roundup
Issued by NWS

Home | Current Version | Previous Version | Graphics & Text | Print | Product List | Glossary On
Versions: 1 2 3 4 5 6 7 8 9 10 11 12 13 14 15 16 17 18 19 20 21 22 23 24 25 26 27 28 29 30 31 32 33 34 35 36 37 38 39 40 41 42 43 44 45 46 47 48 49 50
000
ASUS43 KOAX 022002
RWRNE

WEATHER ROUNDUP FOR NEBRASKA
NATIONAL WEATHER SERVICE OMAHA NE
300 PM CDT TUE SEP 02 2014

NOTES: SATELLITE DATA IS BEING USED TO AUGMENT CLOUD COVER ABOVE
       12000 FEET.
       "FAIR" INDICATES FEW OR NO CLOUDS BELOW 12,000 FEET WITH NO
       SIGNIFICANT WEATHER AND/OR OBSTRUCTIONS TO VISIBILITY.

  * THESE STATIONS DO NOT REPORT WEATHER SUCH AS RAIN...SNOW OR FOG.

NEZ001>004-019>022-054>056-022100-
NEBRASKA PANHANDLE

CITY           SKY/WX    TMP DP  RH WIND       PRES   REMARKS
SCOTTSBLUFF    SUNNY     86  41  20 W9        29.95F
ALLIANCE       SUNNY     82  46  28 S13       29.95F
CHADRON        SUNNY     82  40  22 W12       29.90F
KIMBALL        SUNNY     83  42  23 SW13G18   30.00F
SIDNEY         SUNNY     80  54  40 S16G29    30.02F
$$

NEZ057>060-069>072-079>082-022100-
SOUTHWEST NEBRASKA

CITY           SKY/WX    TMP DP  RH WIND       PRES   REMARKS
NORTH PLATTE   MOSUNNY   77  62  59 S13       29.98F
IMPERIAL       MOSUNNY   83  58  42 S16       29.99F
LEXINGTON      SUNNY     81  62  52 S9        30.00F
MCCOOK         SUNNY     86  55  34 S12       29.99F
OGALLALA       PTSUNNY   79  61  54 SW13G21   29.98F
$$

NEZ005>010-023>029-035>040-094-022100-
NORTH CENTRAL NEBRASKA

CITY           SKY/WX    TMP DP  RH WIND       PRES   REMARKS
VALENTINE      SUNNY     81  47  30 S17G23    29.93F
AINSWORTH      SUNNY     78  48  34 SW13      29.96F
BROKEN BOW     SUNNY     82  54  37 S15G22    29.98F
O`NEILL        SUNNY     80  52  38 SW12G17   29.96F
ORD            SUNNY     78  58  49 S9        29.97F
THEDFORD       SUNNY     81  59  47 SW18      29.97F
$$

NEZ041-046>049-061>064-073>077-083>087-022100-
SOUTH CENTRAL NEBRASKA

CITY           SKY/WX    TMP DP  RH WIND       PRES   REMARKS
GRAND ISLAND   SUNNY     82  56  40 VRB6      30.01S
AURORA         SUNNY     77  56  47 SW3       30.01S
HASTINGS       SUNNY     79  56  45 VRB7      30.01S
HEBRON         SUNNY     81  54  39 S6        30.01F
HOLDREGE       SUNNY     80  56  42 S10       30.00F
KEARNEY *      SUNNY     79  59  50 S8        30.02S
YORK           SUNNY     77 N/A N/A NW6       30.01F
$$

NEZ011>018-030>034-042>045-022100-
NORTHEAST NEBRASKA

CITY           SKY/WX    TMP DP  RH WIND       PRES   REMARKS
NORFOLK        SUNNY     76  57  51 S8        29.99S
ALBION         SUNNY     76  53  45 S8        30.00S
BLAIR          SUNNY     77  57  49 W7        30.00F
FREMONT        SUNNY     78  56  47 SW6       30.01S
TEKAMAH        SUNNY     77  59  53 SW9       29.99S
WAYNE          MOSUNNY   75  61  60 S10       29.99S
$$

NEZ050>053-065>068-078-088>093-022100-
SOUTHEAST NEBRASKA

CITY           SKY/WX    TMP DP  RH WIND       PRES   REMARKS
LINCOLN        SUNNY     81  56  42 W8        30.01F
OMAHA EPPLEY   MOSUNNY   79  53  40 SW9       29.99F
BEATRICE       SUNNY     81  59  46 W3        30.00F
FALLS CITY     SUNNY     84  61  45 VRB7      29.99F
NEBRASKA CITY  SUNNY     79  58  47 SW9       30.00F
PLATTSMOUTH    SUNNY     80  54  40 W9        30.00F
$$

NEZ044-045-051>053-067-022100-
OMAHA AREA

CITY           SKY/WX    TMP DP  RH WIND       PRES   REMARKS
OMAHA EPPLEY   MOSUNNY   79  53  40 SW9       29.99F
BLAIR          SUNNY     77  57  49 W7        30.00F
FREMONT        SUNNY     78  56  47 SW6       30.01S
MILLARD        SUNNY     78  58  49 W8        30.00S
OFFUTT AFB     SUNNY     79  59  50 S10       29.99F
PLATTSMOUTH    SUNNY     80  54  40 W9        30.00F
WAHOO          FAIR      78  54  43 SW3       30.00S
$$


USA.gov is the U.S. government's official web portal to all federal, state and local government web resources and services.